Simultaneous Nadir Overpasses (SNOs) Predictions

Prediction of SNOs between GOES-16 and NOAA-20 Satellite Orbit:

Table of predicted SNOs for the next 14.0 days since TLE Epoch: 5/22/2021
Index Date Time (GOES-16) GOES-16 Lat,Lon NOAA-20 Lat,Lon Distance(km) Time Diff (sec)
1 05/23/2021 06:23:45 -0.01, -75.18 -0.02, -75.08 12.00 80
2 05/25/2021 18:26:58 0.02, -75.19 -0.14, -75.86 76.55 80
3 05/26/2021 18:10:53 0.02, -75.19 0.87, -71.33 439.95 80
4 05/28/2021 06:30:02 -0.02, -75.20 0.29, -76.61 160.49 80
5 05/29/2021 06:13:57 -0.01, -75.20 -0.72, -72.07 356.24 80
6 05/30/2021 18:33:13 0.01, -75.21 -0.50, -77.38 247.64 80
7 05/31/2021 18:17:09 0.01, -75.22 0.51, -72.85 269.74 80
8 06/02/2021 06:36:17 -0.01, -75.24 0.65, -78.12 329.18 80
9 06/03/2021 06:20:13 -0.01, -75.25 -0.35, -73.59 188.68 80
10 06/04/2021 18:39:30 0.01, -75.27 -0.80, -78.90 413.71 80
